User: anonymous   Login
Location: Owatonna
(44.0840°N, 93.2260°W)
Time: 17:49:02
(UTC-05:00)
Language:

Cosmos 839 Rocket - Orbit

View from above orbital plane
View from above orbital plane
View from above satellite
View from above satellite

Ground track
Ground track

The orbit data is extracted from the following two-line orbital elements,

1  9013U 76067B   17179.55174189 -.00000099 +00000-0 -15312-3 0  9999
2  9013 065.8665 344.3893 0706576 068.4054 331.6364 12.35327667847819
Epoch (UTC): 28 June 2017 13:14:30
Eccentricity: 0.0706576
inclination: 65.8665°
perigee height: 968 km
apogee height: 2085 km
right ascension of ascending node: 344.3893°
argument of perigee: 68.4054°
revolutions per day: 12.35327667
mean anomaly at epoch: 331.6364°
orbit number at epoch: 84781

The dashed part of the orbit path shows where the satellite is in the earth's shadow,  

DLR